QPF
0.00 0.00 0.00 0.00 0.00 0.00 0.01 0.05 0.08 0.05 0.01 0.01 0.01 0.01 0.02 0.02 0.02 0.03 0.03 0.02 0.02 0.03 0.05 0.05 0.05 0.04 0.03 0.03 0.03 0.06 0.11 0.15 0.17 0.19 0.19 0.18 0.16 0.15
0.00 0.00 0.00 0.00 0.00 0.00 0.00 0.01 0.04 0.07 0.03 0.00 0.00 0.01 0.02 0.02 0.02 0.04 0.04 0.04 0.05 0.05 0.05 0.06 0.06 0.07 0.06 0.05 0.04 0.05 0.07 0.10 0.12 0.13 0.13 0.13 0.12 0.12
0.00 0.00 0.00 0.00 0.00 0.00 0.00 0.00 0.01 0.03 0.03 0.00 0.00 0.00 0.01 0.01 0.01 0.02 0.03 0.04 0.04 0.04 0.05 0.07 0.08 0.09 0.09 0.09 0.08 0.08 0.08 0.08 0.09 0.11 0.11 0.11 0.11 0.10
0.00 0.00 0.00 0.00 0.00 0.00 0.00 0.00 0.00 0.01 0.02 0.01 0.00 0.00 0.00 0.01 0.01 0.01 0.01 0.03 0.03 0.04 0.07 0.09 0.11 0.12 0.12 0.12 0.12 0.12 0.11 0.10 0.09 0.09 0.10 0.11 0.11 0.11
0.00 0.00 0.00 0.00 0.00 0.00 0.00 0.00 0.00 0.00 0.01 0.02 0.01 0.00 0.00 0.01 0.01 0.01 0.01 0.02 0.02 0.03 0.06 0.09 0.10 0.12 0.13 0.14 0.15 0.15 0.15 0.15 0.15 0.14 0.15 0.15 0.15 0.14
0.00 0.00 0.00 0.00 0.00 0.00 0.00 0.00 0.00 0.00 0.01 0.01 0.01 0.00 0.00 0.01 0.02 0.02 0.02 0.01 0.01 0.02 0.06 0.10 0.11 0.11 0.12 0.13 0.14 0.16 0.17 0.19 0.24 0.30 0.33 0.32 0.29 0.25
0.00 0.00 0.00 0.00 0.00 0.00 0.00 0.00 0.00 0.00 0.01 0.01 0.01 0.01 0.01 0.01 0.02 0.03 0.03 0.02 0.01 0.02 0.04 0.05 0.08 0.10 0.11 0.13 0.17 0.20 0.23 0.27 0.34 0.42 0.47 0.47 0.43 0.37
0.00 0.00 0.00 0.00 0.00 0.00 0.00 0.00 0.01 0.01 0.01 0.01 0.01 0.01 0.01 0.01 0.02 0.04 0.04 0.04 0.03 0.02 0.03 0.03 0.06 0.10 0.11 0.14 0.22 0.28 0.31 0.37 0.44 0.50 0.52 0.51 0.48 0.45
0.00 0.00 0.00 0.00 0.00 0.00 0.00 0.00 0.01 0.01 0.01 0.01 0.01 0.01 0.01 0.02 0.03 0.03 0.03 0.03 0.03 0.02 0.03 0.04 0.05 0.07 0.09 0.14 0.24 0.31 0.35 0.39 0.44 0.48 0.50 0.47 0.41 0.37
0.00 0.00 0.00 0.00 0.00 0.01 0.01 0.01 0.00 0.00 0.00 0.01 0.01 0.02 0.03 0.02 0.02 0.03 0.03 0.03 0.02 0.02 0.03 0.04 0.05 0.05 0.07 0.11 0.21 0.29 0.32 0.34 0.37 0.39 0.38 0.35 0.30 0.26
0.00 0.00 0.00 0.00 0.00 0.01 0.02 0.01 0.01 0.00 0.00 0.01 0.02 0.03 0.03 0.02 0.02 0.05 0.08 0.09 0.07 0.04 0.03 0.06 0.07 0.07 0.09 0.12 0.19 0.27 0.28 0.30 0.31 0.30 0.29 0.25 0.21 0.17
0.01 0.00 0.00 0.01 0.01 0.02 0.02 0.02 0.02 0.01 0.01 0.01 0.01 0.01 0.00 0.01 0.02 0.06 0.12 0.15 0.13 0.08 0.05 0.06 0.07 0.09 0.13 0.15 0.17 0.23 0.25 0.25 0.24 0.22 0.19 0.16 0.12 0.09
0.01 0.01 0.00 0.01 0.01 0.02 0.02 0.02 0.03 0.03 0.03 0.01 0.00 0.00 0.01 0.01 0.02 0.03 0.05 0.10 0.13 0.12 0.09 0.08 0.09 0.12 0.14 0.17 0.22 0.25 0.23 0.20 0.19 0.17 0.15 0.12 0.08 0.05
0.02 0.01 0.01 0.02 0.01 0.01 0.01 0.01 0.02 0.02 0.01 0.01 0.01 0.01 0.01 0.01 0.01 0.02 0.03 0.05 0.09 0.11 0.09 0.08 0.08 0.11 0.15 0.19 0.24 0.26 0.23 0.19 0.16 0.14 0.12 0.10 0.07 0.05
0.02 0.02 0.02 0.01 0.01 0.00 0.00 0.01 0.01 0.01 0.03 0.04 0.04 0.02 0.01 0.02 0.02 0.04 0.06 0.08 0.10 0.11 0.11 0.11 0.13 0.16 0.20 0.23 0.25 0.27 0.25 0.20 0.15 0.12 0.09 0.06 0.04 0.03
0.03 0.03 0.01 0.00 0.00 0.00 0.00 0.00 0.00 0.01 0.05 0.08 0.06 0.03 0.02 0.03 0.05 0.09 0.13 0.14 0.16 0.16 0.17 0.18 0.21 0.23 0.23 0.22 0.22 0.23 0.22 0.19 0.14 0.10 0.06 0.04 0.02 0.01
0.03 0.01 0.00 0.00 0.00 0.00 0.00 0.00 0.00 0.01 0.02 0.04 0.05 0.04 0.03 0.04 0.07 0.12 0.17 0.20 0.21 0.21 0.22 0.22 0.22 0.18 0.15 0.14 0.14 0.15 0.15 0.12 0.09 0.06 0.03 0.02 0.01 0.00
0.01 0.00 0.00 0.00 0.01 0.01 0.01 0.01 0.01 0.01 0.03 0.05 0.06 0.06 0.07 0.08 0.10 0.14 0.19 0.22 0.23 0.23 0.23 0.21 0.15 0.10 0.08 0.07 0.07 0.07 0.06 0.04 0.03 0.02 0.01 0.00 0.00 0.00
0.01 0.01 0.01 0.01 0.01 0.01 0.01 0.01 0.01 0.02 0.05 0.08 0.10 0.10 0.11 0.11 0.14 0.17 0.21 0.23 0.23 0.22 0.18 0.12 0.07 0.05 0.04 0.03 0.02 0.01 0.01 0.01 0.00 0.00 0.00 0.00 0.00 0.00
0.01 0.01 0.01 0.01 0.01 0.01 0.02 0.02 0.03 0.04 0.07 0.11 0.13 0.14 0.15 0.16 0.18 0.21 0.23 0.22 0.20 0.15 0.09 0.04 0.02 0.01 0.01 0.01 0.00 0.00 0.00 0.00 0.00 0.00 0.00 0.00 0.00 0.00
0.01 0.01 0.00 0.01 0.01 0.01 0.02 0.02 0.05 0.09 0.12 0.16 0.18 0.19 0.20 0.21 0.23 0.24 0.21 0.17 0.10 0.05 0.02 0.01 0.01 0.00 0.00 0.00 0.00 0.00 0.00 0.00 0.00 0.00 0.00 0.00 0.00 0.00
0.01 0.01 0.01 0.01 0.01 0.01 0.02 0.04 0.08 0.11 0.15 0.18 0.22 0.24 0.25 0.25 0.23 0.18 0.11 0.05 0.02 0.01 0.00 0.00 0.00 0.00 0.00 0.00 0.00 0.00 0.00 0.00 0.00 0.00 0.00 0.00 0.01 0.01
0.01 0.01 0.01 0.01 0.01 0.02 0.03 0.06 0.10 0.14 0.18 0.22 0.25 0.25 0.22 0.16 0.10 0.05 0.02 0.01 0.00 0.00 0.00 0.00 0.00 0.00 0.00 0.00 0.00 0.00 0.00 0.00 0.00 0.00 0.01 0.01 0.01 0.02
MSLP
1008.57 1008.07 1007.52 1006.88 1006.14 1005.29 1004.34 1003.33 1002.29 1001.28 1000.34 999.50 998.77 998.14 997.58 997.06 996.56 996.04 995.50 994.94 994.38 993.84 993.36 992.97 992.68 992.49 992.40 992.39 992.44 992.53 992.65 992.80 992.98 993.21 993.52 993.91 994.42 995.04
1008.48 1007.97 1007.43 1006.81 1006.10 1005.28 1004.36 1003.39 1002.39 1001.40 1000.47 999.61 998.84 998.14 997.49 996.87 996.25 995.61 994.95 994.28 993.61 993.00 992.46 992.02 991.69 991.47 991.36 991.32 991.35 991.40 991.48 991.57 991.70 991.89 992.15 992.52 993.01 993.64
1008.31 1007.79 1007.23 1006.62 1005.93 1005.15 1004.29 1003.37 1002.43 1001.49 1000.59 999.74 998.94 998.20 997.47 996.75 996.02 995.25 994.47 993.69 992.92 992.23 991.62 991.12 990.75 990.50 990.35 990.28 990.25 990.26 990.28 990.32 990.39 990.52 990.74 991.09 991.58 992.23
1008.08 1007.52 1006.95 1006.33 1005.65 1004.90 1004.09 1003.23 1002.35 1001.47 1000.61 999.78 998.97 998.19 997.40 996.59 995.75 994.88 993.99 993.11 992.26 991.48 990.81 990.26 989.84 989.54 989.34 989.21 989.13 989.08 989.04 989.02 989.03 989.12 989.32 989.66 990.16 990.84
1007.82 1007.22 1006.61 1005.97 1005.28 1004.55 1003.77 1002.96 1002.12 1001.29 1000.46 999.64 998.83 998.01 997.16 996.29 995.37 994.41 993.44 992.48 991.56 990.73 990.00 989.40 988.92 988.57 988.31 988.12 987.98 987.86 987.76 987.68 987.66 987.72 987.91 988.26 988.80 989.52
1007.53 1006.88 1006.23 1005.55 1004.85 1004.11 1003.33 1002.54 1001.72 1000.91 1000.09 999.27 998.45 997.60 996.71 995.78 994.81 993.81 992.78 991.78 990.82 989.94 989.18 988.53 988.01 987.60 987.28 987.02 986.81 986.63 986.47 986.36 986.32 986.38 986.58 986.97 987.56 988.35
1007.23 1006.53 1005.83 1005.11 1004.36 1003.59 1002.79 1001.99 1001.17 1000.34 999.51 998.68 997.83 996.95 996.04 995.08 994.09 993.06 992.02 991.00 990.04 989.15 988.36 987.68 987.11 986.65 986.26 985.95 985.67 985.44 985.25 985.12 985.08 985.16 985.41 985.86 986.52 987.39
1006.90 1006.16 1005.40 1004.63 1003.84 1003.02 1002.18 1001.34 1000.49 999.63 998.77 997.91 997.03 996.13 995.20 994.23 993.23 992.21 991.19 990.19 989.24 988.36 987.57 986.87 986.28 985.76 985.32 984.95 984.63 984.36 984.15 984.03 984.03 984.17 984.49 985.02 985.77 986.73
1006.55 1005.76 1004.96 1004.14 1003.29 1002.42 1001.54 1000.65 999.75 998.85 997.95 997.05 996.14 995.22 994.28 993.31 992.33 991.35 990.36 989.41 988.49 987.64 986.86 986.16 985.54 985.00 984.52 984.10 983.75 983.47 983.28 983.20 983.25 983.47 983.89 984.52 985.36 986.40
1006.14 1005.33 1004.49 1003.63 1002.74 1001.83 1000.90 999.97 999.02 998.08 997.13 996.19 995.25 994.31 993.37 992.42 991.47 990.53 989.60 988.69 987.83 987.02 986.27 985.58 984.95 984.39 983.89 983.46 983.11 982.84 982.69 982.67 982.81 983.13 983.65 984.38 985.31 986.42
1005.70 1004.86 1004.00 1003.11 1002.20 1001.27 1000.31 999.34 998.36 997.38 996.39 995.42 994.45 993.49 992.54 991.61 990.69 989.80 988.93 988.08 987.28 986.52 985.81 985.14 984.53 983.97 983.48 983.06 982.73 982.50 982.41 982.47 982.71 983.13 983.76 984.59 985.60 986.76
1005.20 1004.35 1003.49 1002.60 1001.69 1000.75 999.79 998.80 997.80 996.79 995.77 994.76 993.77 992.79 991.84 990.92 990.02 989.17 988.35 987.57 986.83 986.12 985.46 984.83 984.26 983.73 983.27 982.89 982.61 982.45 982.44 982.59 982.92 983.45 984.17 985.07 986.13 987.32
1004.68 1003.84 1002.99 1002.12 1001.23 1000.31 999.35 998.36 997.35 996.32 995.27 994.23 993.20 992.20 991.23 990.31 989.44 988.61 987.84 987.12 986.43 985.79 985.19 984.63 984.11 983.65 983.25 982.93 982.73 982.65 982.73 982.97 983.40 984.01 984.79 985.74 986.82 988.00
1004.17 1003.35 1002.52 1001.69 1000.83 999.93 998.99 998.01 996.99 995.94 994.86 993.78 992.72 991.68 990.70 989.76 988.90 988.10 987.36 986.69 986.08 985.51 984.99 984.51 984.08 983.70 983.39 983.16 983.05 983.06 983.23 983.55 984.05 984.72 985.54 986.50 987.56 988.68
1003.70 1002.91 1002.12 1001.33 1000.50 999.63 998.71 997.73 996.69 995.61 994.50 993.38 992.27 991.20 990.18 989.23 988.37 987.59 986.90 986.28 985.74 985.26 984.84 984.46 984.13 983.86 983.66 983.54 983.53 983.64 983.88 984.27 984.81 985.50 986.31 987.24 988.24 989.29
1003.31 1002.56 1001.82 1001.05 1000.26 999.40 998.48 997.49 996.43 995.31 994.15 992.98 991.82 990.71 989.66 988.70 987.84 987.09 986.45 985.90 985.45 985.07 984.76 984.50 984.29 984.15 984.06 984.05 984.14 984.33 984.63 985.06 985.61 986.28 987.05 987.91 988.82 989.76
1003.04 1002.33 1001.61 1000.88 1000.09 999.23 998.29 997.26 996.16 994.99 993.78 992.56 991.36 990.22 989.15 988.20 987.36 986.66 986.07 985.61 985.25 984.99 984.79 984.66 984.58 984.56 984.59 984.68 984.85 985.10 985.44 985.88 986.41 987.03 987.73 988.48 989.27 990.09
1002.89 1002.21 1001.51 1000.77 999.97 999.08 998.10 997.03 995.87 994.65 993.39 992.13 990.91 989.75 988.70 987.78 986.99 986.35 985.85 985.48 985.23 985.07 985.00 984.99 985.03 985.11 985.24 985.42 985.65 985.93 986.28 986.70 987.18 987.72 988.32 988.95 989.62 990.29
1002.83 1002.17 1001.47 1000.71 999.87 998.93 997.89 996.76 995.55 994.28 992.99 991.72 990.50 989.38 988.37 987.50 986.79 986.24 985.83 985.57 985.42 985.37 985.40 985.49 985.62 985.79 985.99 986.22 986.48 986.77 987.11 987.48 987.90 988.35 988.84 989.35 989.88 990.42
1002.84 1002.17 1001.45 1000.64 999.74 998.74 997.64 996.45 995.20 993.91 992.62 991.36 990.19 989.13 988.20 987.43 986.82 986.37 986.07 985.90 985.85 985.89 985.99 986.15 986.33 986.54 986.77 987.02 987.28 987.56 987.86 988.18 988.53 988.89 989.27 989.67 990.09 990.52
1002.84 1002.14 1001.38 1000.51 999.55 998.48 997.32 996.09 994.81 993.53 992.28 991.09 990.00 989.04 988.23 987.58 987.09 986.75 986.55 986.46 986.48 986.57 986.71 986.88 987.08 987.29 987.51 987.74 987.98 988.22 988.48 988.75 989.03 989.32 989.62 989.93 990.26 990.60
1002.78 1002.04 1001.20 1000.27 999.24 998.11 996.91 995.67 994.41 993.18 992.00 990.91 989.94 989.12 988.45 987.93 987.56 987.32 987.20 987.17 987.22 987.32 987.45 987.60 987.76 987.93 988.11 988.29 988.48 988.68 988.90 989.12 989.36 989.60 989.85 990.12 990.40 990.69
1002.60 1001.80 1000.90 999.90 998.82 997.65 996.44 995.22 994.01 992.85 991.78 990.83 990.01 989.33 988.81 988.42 988.16 988.00 987.93 987.92 987.96 988.03 988.10 988.19 988.28 988.38 988.48 988.60 988.74 988.90 989.08 989.28 989.49 989.72 989.96 990.22 990.48 990.76
Thickness
5504 5498 5492 5489 5484 5479 5474 5469 5465 5472 5493 5511 5510 5512 5508 5510 5514 5516 5521 5529 5534 5540 5545 5548 5551 5555 5560 5563 5566 5569 5571 5573 5574 5574 5573 5571 5569 5567
5478 5474 5469 5464 5461 5457 5452 5448 5443 5439 5448 5473 5481 5484 5483 5486 5491 5494 5499 5506 5514 5522 5529 5534 5539 5543 5547 5551 5554 5557 5560 5563 5566 5568 5567 5566 5564 5562
5453 5448 5444 5440 5437 5434 5431 5429 5427 5423 5423 5442 5452 5457 5459 5463 5469 5473 5478 5485 5495 5504 5512 5519 5526 5532 5536 5540 5544 5547 5549 5553 5556 5559 5562 5562 5560 5557
5430 5424 5420 5417 5414 5412 5412 5412 5412 5409 5404 5410 5429 5436 5440 5442 5448 5455 5463 5470 5478 5487 5495 5504 5512 5519 5524 5529 5533 5537 5541 5544 5547 5551 5554 5556 5556 5554
5407 5402 5398 5396 5396 5395 5394 5395 5395 5394 5389 5388 5403 5415 5422 5426 5428 5437 5445 5453 5462 5470 5478 5488 5497 5505 5512 5517 5522 5527 5531 5535 5539 5543 5546 5549 5552 5551
5387 5382 5379 5376 5375 5376 5378 5378 5375 5374 5374 5373 5380 5391 5400 5407 5408 5416 5428 5437 5445 5454 5462 5472 5482 5491 5499 5505 5511 5516 5520 5525 5529 5535 5539 5542 5545 5547
5371 5365 5360 5357 5355 5353 5353 5353 5351 5351 5353 5356 5361 5367 5376 5382 5386 5394 5405 5421 5432 5437 5445 5458 5466 5476 5485 5491 5497 5503 5509 5514 5520 5525 5531 5536 5540 5541
5348 5345 5340 5336 5331 5329 5325 5325 5325 5324 5326 5330 5336 5342 5351 5357 5364 5373 5383 5397 5417 5427 5428 5443 5449 5461 5471 5478 5485 5492 5499 5505 5511 5517 5523 5528 5531 5531
5321 5316 5313 5309 5301 5297 5299 5300 5300 5300 5301 5304 5312 5321 5328 5337 5343 5353 5362 5374 5393 5408 5411 5432 5441 5450 5461 5468 5476 5483 5490 5496 5503 5508 5513 5515 5515 5511
5298 5291 5285 5282 5277 5273 5273 5276 5279 5283 5285 5291 5298 5305 5312 5320 5326 5335 5346 5362 5380 5396 5405 5421 5435 5442 5451 5457 5465 5473 5480 5488 5494 5499 5501 5498 5494 5489
5283 5276 5268 5264 5262 5256 5254 5256 5263 5270 5277 5282 5288 5294 5301 5308 5315 5323 5336 5348 5367 5386 5396 5408 5423 5428 5434 5442 5450 5460 5469 5477 5482 5483 5481 5477 5472 5467
5274 5268 5260 5254 5251 5248 5245 5246 5250 5258 5267 5276 5282 5286 5291 5299 5307 5314 5323 5334 5349 5369 5387 5393 5406 5410 5420 5424 5432 5444 5454 5461 5463 5463 5461 5457 5453 5448
5262 5259 5254 5249 5246 5244 5241 5239 5241 5250 5258 5264 5272 5281 5289 5296 5303 5310 5316 5323 5336 5354 5369 5376 5389 5395 5402 5406 5412 5422 5435 5443 5444 5443 5442 5440 5437 5433
5250 5248 5245 5243 5242 5239 5237 5237 5241 5246 5249 5256 5266 5277 5287 5295 5302 5310 5317 5323 5329 5339 5349 5360 5375 5384 5387 5391 5396 5401 5412 5422 5426 5425 5423 5421 5418 5415
5244 5243 5240 5237 5235 5234 5233 5235 5237 5239 5244 5253 5264 5274 5284 5294 5304 5312 5319 5324 5328 5332 5340 5351 5364 5374 5379 5383 5385 5388 5393 5399 5408 5409 5406 5404 5403 5402
5238 5238 5235 5231 5228 5227 5229 5230 5232 5236 5243 5252 5263 5274 5285 5296 5305 5312 5319 5324 5328 5331 5336 5344 5354 5363 5368 5373 5378 5380 5384 5386 5389 5391 5388 5385 5386 5388
5234 5233 5230 5228 5226 5227 5228 5230 5233 5239 5246 5255 5264 5275 5288 5299 5306 5312 5318 5323 5327 5329 5333 5338 5345 5351 5357 5363 5367 5369 5371 5372 5373 5375 5374 5370 5369 5372
5225 5223 5222 5220 5220 5222 5226 5231 5236 5242 5250 5258 5267 5276 5288 5299 5306 5313 5318 5322 5324 5326 5328 5330 5335 5342 5347 5349 5353 5356 5359 5359 5360 5362 5364 5362 5358 5357
5214 5214 5214 5215 5217 5220 5224 5231 5239 5246 5253 5260 5268 5279 5289 5299 5306 5313 5318 5320 5320 5320 5320 5322 5326 5335 5344 5343 5339 5347 5350 5350 5351 5350 5351 5351 5348 5345
5208 5208 5210 5213 5216 5221 5227 5235 5243 5251 5257 5263 5271 5282 5292 5300 5308 5313 5316 5317 5317 5318 5319 5320 5323 5327 5335 5337 5338 5337 5341 5342 5342 5339 5336 5334 5332 5332
5205 5206 5209 5213 5218 5225 5232 5239 5246 5253 5260 5266 5276 5286 5294 5301 5307 5312 5314 5317 5317 5318 5319 5318 5317 5321 5321 5329 5333 5329 5327 5330 5331 5327 5323 5320 5319 5317
5203 5206 5210 5216 5223 5230 5238 5244 5251 5257 5264 5272 5281 5289 5295 5300 5305 5308 5311 5313 5314 5314 5312 5311 5311 5314 5317 5320 5318 5316 5315 5314 5316 5317 5315 5314 5309 5307
5203 5207 5213 5221 5229 5236 5243 5249 5255 5262 5269 5278 5287 5292 5296 5300 5303 5305 5307 5308 5308 5308 5308 5307 5306 5306 5305 5304 5303 5303 5303 5303 5302 5302 5300 5300 5300 5301